Lapse_Rate
9.2 8.2 8.1 7.6 6.8 7.2 7.3 6.3 6.2 6.8 6.4 6.2 6.6 8.2 8.5 6.6 6.3 6.3 6.2 6.4 6.5 7.1 7.2 7.5 7.4 7.7 9.6 9.7 9.8 9.7 9.6 9.5 8.9 9.3 9.7 9.8 9.4 9.4 9.7 9.6 9.4 9.6 9.2
7.0 6.3 6.9 6.6 6.8 6.8 5.7 5.4 5.9 6.2 8.5 8.7 9.1 8.8 8.2 7.7 6.6 6.2 6.1 6.7 7.1 9.0 9.2 9.0 9.1 9.6 9.1 9.3 9.7 9.2 9.3 9.4 9.2 8.5 9.1 9.6 9.4 9.5 9.6 9.5 10.0 9.8 9.8
6.1 6.6 6.9 6.0 8.2 5.8 5.5 5.8 5.8 6.0 7.1 9.6 9.5 9.3 9.4 9.3 8.4 8.3 8.3 9.0 9.3 9.4 9.3 8.5 7.8 6.8 7.5 8.5 9.2 9.4 9.6 9.4 9.2 9.2 9.1 9.6 9.6 9.7 9.4 9.5 9.6 9.7 9.6
6.8 6.8 6.0 7.4 6.5 6.5 5.1 5.1 5.7 5.7 7.7 9.1 9.5 9.5 9.5 9.5 9.6 9.5 9.3 8.6 8.6 9.4 9.0 8.5 8.3 7.3 7.5 7.5 8.8 9.1 9.2 9.2 9.0 9.1 9.3 9.3 9.5 9.5 9.5 9.4 9.3 9.7 9.6
6.6 6.9 5.6 5.1 5.0 4.6 4.4 4.6 4.9 5.7 7.9 9.0 9.3 9.5 9.6 9.6 9.9 9.5 9.6 9.5 9.2 9.3 9.3 8.9 8.5 6.4 5.1 4.3 7.2 7.9 8.0 9.0 9.1 9.1 8.9 9.2 9.1 9.0 8.7 9.2 9.3 9.5 9.5
6.5 7.1 4.8 4.6 4.0 4.2 3.9 4.5 4.9 6.1 7.5 9.1 9.3 9.4 9.4 9.9 4.5 5.8 6.6 9.6 9.5 9.4 9.4 9.5 8.9 7.4 8.0 5.6 4.8 4.5 4.5 7.1 8.5 8.9 8.6 8.8 7.6 8.9 9.1 8.9 9.1 8.9 8.6
5.9 4.8 4.6 4.6 4.6 4.4 4.7 4.7 5.5 6.8 9.1 8.8 9.3 9.4 9.2 9.5 5.5 5.5 6.1 9.7 9.6 9.4 9.4 9.4 9.6 9.9 8.6 8.7 7.8 5.9 5.6 4.8 4.4 6.6 7.4 7.3 7.8 7.5 7.0 6.0 8.6 8.3 8.8
5.2 4.4 4.7 4.7 5.0 5.1 5.2 5.3 5.8 7.9 8.8 9.1 9.2 9.4 8.9 8.3 5.2 5.1 5.5 9.5 9.6 9.5 9.4 9.5 9.4 9.5 6.2 5.6 8.5 8.5 9.0 8.0 8.3 8.8 8.3 8.5 8.5 7.3 7.6 8.0 8.5 7.8 8.7
6.1 5.2 5.1 5.5 5.6 5.6 5.7 5.9 7.0 8.2 9.2 9.3 9.4 9.3 9.2 9.3 4.8 4.1 4.7 9.6 9.5 9.5 9.5 9.6 8.8 9.5 3.2 3.9 8.1 8.4 8.9 8.8 5.2 5.5 5.0 4.3 4.0 3.9 4.5 9.0 9.2 9.1 8.9
5.8 5.6 5.5 5.7 6.2 6.4 6.5 6.6 7.8 7.1 8.9 9.3 9.2 9.1 7.5 7.9 3.7 3.6 4.6 9.9 9.4 9.5 9.6 9.6 5.8 5.5 3.2 3.1 7.6 9.1 8.7 8.7 9.2 9.1 7.9 6.6 6.7 7.6 6.1 8.7 9.6 9.1 9.0
6.0 5.7 5.7 5.5 5.5 6.7 6.6 6.3 6.3 7.4 8.8 8.2 8.7 8.9 7.9 6.5 7.2 2.5 2.8 7.3 9.6 9.5 9.5 9.7 9.4 3.5 2.6 2.6 3.1 9.3 8.0 6.1 8.9 9.4 9.5 9.7 9.7 9.8 10.0 9.3 7.2 9.5 9.3
5.7 5.5 5.4 5.5 7.1 8.7 6.2 6.2 6.1 7.3 8.9 9.0 8.9 9.2 9.6 7.6 3.1 2.3 2.3 2.2 3.6 7.7 9.3 9.7 8.8 2.4 2.3 2.6 4.8 4.4 4.1 4.1 9.8 9.6 9.5 9.4 9.5 9.6 9.9 9.6 6.8 7.0 7.5
5.4 5.7 6.3 6.5 6.8 6.7 6.4 6.8 8.9 7.9 8.7 9.1 9.4 9.4 9.4 9.7 9.4 2.2 1.9 1.5 1.2 5.3 9.8 5.4 3.2 2.3 2.2 3.9 4.7 4.8 4.0 9.7 9.6 9.4 9.3 9.4 9.5 9.8 8.3 9.7 9.3 7.6 6.8
6.6 6.5 6.9 7.2 7.0 7.0 9.4 9.6 9.4 9.5 9.4 9.3 9.3 9.2 9.4 9.5 9.6 9.7 9.0 7.2 2.3 4.6 6.0 8.8 6.8 4.5 2.3 4.1 6.0 7.1 9.8 9.8 9.5 9.5 9.5 9.6 9.8 9.8 9.6 9.8 9.7 9.6 9.6
7.3 7.9 8.6 9.2 7.9 9.1 8.8 9.5 9.5 9.5 9.0 9.4 9.4 9.5 9.3 9.3 9.0 6.8 6.1 9.4 9.5 5.3 4.5 9.5 9.7 9.6 9.4 9.5 9.7 9.7 9.8 9.8 9.6 9.6 9.6 9.5 9.5 9.6 9.6 9.8 9.6 9.5 9.3
9.0 9.3 9.3 9.4 9.4 9.4 9.4 9.5 2.6 1.9 1.4 0.5 -0.4 2.5 9.1 5.8 2.1 1.7 0.7 0.9 0.4 -0.1 6.3 9.5 9.4 9.4 9.4 9.4 9.4 9.5 9.6 8.6 9.7 9.7 9.6 9.6 9.6 9.5 9.5 9.7 9.6 9.5 9.3
9.1 9.1 9.3 7.5 9.4 9.2 9.3 9.2 9.2 5.7 0.3 -1.1 -1.7 -2.0 -2.2 1.0 -0.5 -1.1 -1.7 -2.0 -2.0 -1.4 7.1 9.4 9.4 9.3 9.4 9.5 9.6 9.6 9.4 9.7 9.4 9.6 9.6 9.6 9.7 9.6 9.2 9.5 9.5 9.4 9.3
9.0 2.7 9.2 9.4 9.5 9.4 9.4 9.4 9.5 9.2 9.2 9.3 -0.1 0.8 -2.8 -3.0 -2.9 -3.0 -2.8 -3.1 5.7 2.6 6.5 9.0 9.4 9.4 9.4 9.4 9.5 9.6 9.7 9.7 9.7 9.6 9.6 9.6 9.7 9.6 9.5 9.4 9.5 9.3 9.4
9.4 9.5 9.5 9.6 9.6 8.5 9.2 9.6 9.7 9.5 9.4 9.4 9.5 2.2 1.7 -2.7 -3.1 -3.6 -3.6 5.8 9.1 9.5 9.6 9.6 9.5 9.5 9.5 9.5 9.4 9.5 9.5 9.6 9.5 9.7 9.6 9.7 9.7 9.8 9.6 9.6 9.5 6.6 7.6
9.5 6.1 4.9 9.3 7.5 8.3 9.6 9.4 9.2 9.4 9.3 8.6 9.5 9.5 9.8 5.5 8.7 8.9 6.2 6.7 7.7 9.3 9.6 9.5 9.6 9.6 9.4 9.4 9.5 9.5 9.5 9.5 9.6 9.6 9.6 9.6 9.7 9.7 9.6 9.5 9.5 9.5 9.4
7.8 6.8 4.8 4.0 8.1 9.0 9.3 8.3 9.1 9.5 9.4 9.3 9.5 9.3 7.2 9.4 9.5 9.5 9.6 9.6 9.4 9.6 9.5 9.6 9.6 9.6 9.6 9.4 9.3 9.3 9.4 9.5 9.7 9.7 9.8 9.7 9.7 9.7 9.7 9.6 9.7 9.6 9.6
9.3 9.3 9.0 8.8 9.0 8.9 8.6 8.6 8.9 8.9 9.0 9.0 9.1 8.9 1.2 9.0 9.7 9.7 9.6 9.7 9.8 9.7 9.9 9.7 9.8 9.8 9.8 9.7 9.6 9.7 9.6 9.6 9.8 9.8 9.7 9.7 9.8 9.8 9.8 9.6 9.7 9.6 9.5
9.3 9.2 9.1 8.1 7.3 6.6 7.4 7.6 7.5 6.5 7.2 8.0 8.7 8.0 8.5 7.5 6.9 7.2 7.2 8.2 9.4 10.0 9.0 7.4 9.1 10.0 9.8 10.0 9.6 8.5 9.6 9.6 9.6 9.0 9.8 9.7 9.7 9.8 9.8 9.6 9.6 9.5 9.5
9.6 9.5 9.5 9.2 8.4 8.1 7.9 6.9 5.2 3.5 4.0 3.8 4.2 4.0 2.7 2.3 3.9 3.9 2.4 3.5 3.9 3.1 4.0 4.5 7.6 9.3 9.7 9.9 8.7 8.1 8.8 9.9 9.2 8.3 8.2 9.3 9.7 9.0 9.8 9.6 9.7 9.5 9.5
9.8 9.6 9.6 9.6 9.6 9.6 9.5 9.5 9.1 7.3 5.3 4.2 4.0 3.4 2.5 3.0 3.0 4.4 2.9 2.6 1.6 1.3 1.8 2.0 2.4 3.3 4.3 5.1 7.9 9.0 7.0 4.9 6.4 5.4 5.3 6.4 9.2 9.5 9.7 9.7 9.6 9.5 9.5
9.7 9.7 9.6 9.7 9.6 9.5 9.5 9.3 9.4 9.5 9.4 9.6 9.6 9.6 9.1 9.3 8.6 8.6 7.7 5.8 5.4 4.3 5.1 2.0 1.3 2.0 2.2 2.5 2.9 0.4 0.4 0.3 2.1 2.4 2.1 5.8 6.5 8.3 9.7 9.5 9.5 9.3 8.9
Wind_Speed
9 9 9 9 8 7 6 6 4 4 3 3 3 3 2 2 1 3 3 3 4 4 4 4 5 5 6 6 5 6 7 8 9 7 6 7 7 9 9 12 14 11 11
9 9 9 9 7 7 5 5 3 3 2 2 2 3 3 1 1 3 3 2 3 3 2 3 3 3 4 4 5 4 7 8 8 9 8 8 9 8 8 9 9 14 10
11 10 8 7 6 6 5 4 2 2 1 1 2 2 2 2 3 1 1 1 1 0 2 3 5 4 4 6 6 6 5 4 5 8 7 6 6 7 6 8 6 8 12
10 10 9 7 6 5 5 3 1 1 2 2 3 3 2 1 2 3 3 2 2 1 1 1 2 4 5 6 6 6 5 7 6 7 7 6 5 4 5 8 6 6 5
10 9 8 8 7 6 5 3 2 2 2 3 3 3 2 3 1 2 2 3 4 4 1 2 1 4 3 4 6 7 7 7 6 6 7 7 5 8 6 6 7 7 7
11 10 9 7 7 7 5 4 3 3 3 3 3 4 4 4 8 3 8 3 3 4 4 3 3 7 3 5 4 6 6 6 6 6 6 5 6 6 6 7 7 9 6
11 10 9 8 6 5 4 3 2 3 3 3 4 5 4 3 6 3 6 6 5 4 5 4 6 3 4 7 6 11 10 6 6 5 4 4 5 5 6 7 8 8 6
11 11 9 8 6 4 4 4 4 4 4 3 5 5 5 3 9 5 7 8 4 4 5 5 3 3 3 8 6 6 5 5 1 2 4 4 6 7 7 9 9 8 7
10 9 8 7 6 5 4 3 4 4 4 4 4 4 6 5 9 6 7 6 3 6 4 5 4 4 8 8 7 5 6 4 11 7 3 2 2 3 8 9 6 8 5
10 8 8 7 5 3 3 4 4 4 4 5 3 2 1 7 8 4 6 6 5 5 5 3 6 3 5 7 7 6 5 4 6 3 6 8 7 4 2 6 7 8 7
10 10 8 7 7 6 5 5 5 5 4 5 4 4 5 2 5 5 3 6 5 5 5 3 5 5 4 8 8 6 5 7 4 6 3 3 1 1 3 5 6 6 7
9 8 8 7 6 5 6 5 5 5 6 6 5 7 5 3 4 9 6 4 4 7 6 4 3 5 4 6 8 3 6 8 6 4 3 2 3 3 3 4 4 5 5
9 8 6 7 6 5 5 5 5 6 6 6 6 6 4 4 4 11 9 7 9 7 5 5 4 7 9 10 6 5 9 6 4 5 3 3 3 3 5 3 4 2 5
7 6 6 7 6 5 5 6 6 5 6 6 5 5 4 4 4 3 4 6 11 9 9 6 2 6 6 5 4 8 5 4 5 5 4 3 3 3 2 3 3 3 4
6 6 7 7 7 5 7 6 6 7 5 6 5 5 5 5 2 3 2 3 3 2 4 5 5 5 5 5 4 4 4 4 5 4 4 4 4 4 4 3 3 3 4
6 6 5 4 4 5 5 6 12 12 7 7 9 7 9 4 8 6 6 5 2 2 5 6 5 5 5 6 5 5 5 4 5 5 5 5 5 5 5 4 4 5 5
6 2 2 3 4 4 4 5 6 8 11 12 13 11 12 14 1 5 7 7 5 5 7 8 7 6 6 6 6 6 6 5 3 6 7 6 6 6 5 7 6 5 5
3 4 3 4 4 4 5 5 6 6 7 6 11 11 13 12 9 9 7 6 7 7 9 10 9 8 7 7 7 7 7 6 6 6 7 7 7 7 7 7 7 7 6
5 4 4 4 5 4 6 7 7 7 7 6 6 7 10 7 5 5 10 9 10 10 9 9 9 9 9 8 8 7 8 8 7 7 7 8 8 8 8 8 8 6 5
4 1 3 5 5 6 8 7 7 9 7 6 9 8 6 7 7 8 9 10 10 11 10 10 10 9 9 9 9 9 9 9 9 9 9 9 9 8 9 9 9 8 8
3 3 4 4 7 8 8 9 11 9 9 10 11 9 5 8 10 10 9 9 10 10 10 10 10 10 10 10 10 10 11 10 10 10 9 9 9 9 10 10 10 10 10
6 6 7 7 8 9 8 8 10 11 11 9 11 8 10 8 10 11 12 11 11 10 10 10 10 11 10 11 11 12 13 13 11 11 10 10 10 10 10 11 10 10 10
7 8 7 6 7 8 7 7 7 8 8 9 9 9 9 7 8 9 10 11 10 9 9 7 11 11 9 10 8 9 12 11 11 9 11 11 10 11 11 11 11 11 11
5 5 5 4 4 5 5 6 6 8 8 8 8 7 8 7 9 9 9 9 11 12 10 11 12 15 11 12 11 15 12 17 13 7 9 11 13 12 12 12 12 13 12
6 7 7 6 6 6 5 5 4 5 5 5 6 6 6 7 7 8 7 7 7 9 11 10 10 14 16 21 15 15 14 15 11 13 9 12 16 17 14 13 13 13 14
6 7 6 6 7 7 7 7 7 7 7 7 7 7 8 8 7 9 9 10 10 12 11 7 11 18 20 17 18 28 28 21 13 15 13 9 11 13 12 15 19 11 11
Wind_Direction
150 134 138 135 134 144 135 121 118 119 149 157 169 155 158 134 351 322 316 291 294 295 291 275 278 284 284 293 284 279 278 279 284 290 308 289 314 289 310 315 297 297 257
138 140 142 142 145 130 113 98 85 97 158 173 179 187 178 180 305 305 288 313 277 273 277 262 266 283 280 243 273 282 303 310 298 297 305 300 301 304 290 305 291 305 309
146 144 148 142 137 112 105 89 86 95 58 140 192 211 257 331 324 314 293 244 224 272 350 337 4 347 344 348 310 314 306 286 277 277 299 260 277 293 316 280 288 295 266
150 150 147 147 124 105 96 86 65 96 216 196 220 214 255 307 342 347 353 350 325 341 305 5 9 11 0 345 319 313 307 308 299 281 283 295 294 312 278 279 312 300 323
152 151 147 133 121 114 106 118 156 193 189 259 237 246 242 243 166 349 326 350 342 331 353 336 21 14 13 347 319 348 316 304 308 312 311 318 343 349 347 331 303 312 288
154 153 140 143 138 132 140 156 165 186 209 223 231 239 250 267 92 327 311 315 331 324 320 295 259 244 282 241 264 281 299 304 300 312 319 354 309 330 7 346 321 334 320
155 145 150 153 145 143 149 152 181 206 226 232 255 264 218 231 148 229 281 293 308 337 316 305 292 61 333 314 243 238 231 213 246 296 278 275 316 341 346 315 333 317 304
162 152 160 157 147 152 181 191 197 216 229 253 265 255 258 183 162 214 261 272 285 315 314 301 304 329 27 325 307 308 294 208 245 306 326 2 354 341 326 304 288 286 259
164 161 156 163 158 181 197 209 231 230 227 243 262 250 256 247 163 207 257 279 307 303 307 287 314 298 42 339 303 303 300 293 155 172 172 155 209 297 320 304 343 303 314
164 158 160 168 171 205 227 229 226 237 244 272 237 256 321 273 151 193 272 286 291 314 273 232 153 4 0 334 309 301 301 4 327 305 197 205 221 183 257 344 335 322 329
161 160 164 161 184 209 208 216 217 229 273 248 237 252 263 290 148 189 264 285 308 308 296 278 119 91 345 315 298 314 354 317 264 264 264 261 275 290 14 18 8 348 339
160 158 165 176 210 185 211 205 225 237 239 245 246 252 198 219 213 191 211 275 330 287 281 299 86 14 296 275 281 13 298 280 270 296 291 317 323 332 21 11 8 3 28
165 166 183 190 197 206 223 227 229 222 258 231 239 246 243 203 206 180 193 227 246 263 296 10 298 277 262 251 232 257 268 266 309 292 307 321 333 1 303 253 217 250 232
175 172 188 200 202 219 229 223 244 248 242 246 249 252 257 242 236 225 206 201 223 232 211 219 266 289 287 324 214 213 250 311 329 306 304 302 285 280 279 314 304 311 279
184 193 198 211 202 224 234 260 247 244 278 273 262 269 273 269 276 86 307 270 284 51 317 266 266 262 266 257 250 249 260 263 261 273 266 265 265 266 260 280 281 280 279
193 202 217 240 230 234 254 238 212 244 242 249 262 259 277 255 147 165 210 219 166 122 259 271 284 285 277 282 279 273 264 229 258 268 264 256 261 260 258 252 251 270 285
230 183 224 258 263 254 253 264 278 211 231 227 233 232 225 261 172 229 211 205 182 179 254 272 277 280 288 284 279 276 275 273 319 270 267 262 261 260 221 252 258 264 270
218 78 256 251 258 266 265 273 272 268 272 258 213 222 213 225 229 220 190 189 230 224 256 268 270 266 265 269 269 269 266 265 257 255 258 254 255 256 258 252 252 257 266
230 244 226 254 265 294 287 282 278 279 274 277 274 203 205 187 191 184 175 232 254 265 264 254 250 260 261 257 259 258 258 261 266 268 256 251 254 252 252 252 254 249 264
228 246 282 288 306 291 279 278 301 281 279 295 276 270 266 152 228 227 212 227 243 255 263 262 260 256 253 252 249 247 246 244 243 243 243 254 253 251 255 252 252 262 267
286 240 277 259 271 272 275 280 265 271 277 269 275 264 219 269 277 268 270 236 229 248 257 259 260 255 249 248 245 242 241 245 245 243 249 247 244 249 243 248 256 261 267
304 311 304 304 306 299 298 295 286 282 276 279 283 278 175 234 262 263 263 265 266 267 258 256 264 261 251 248 246 242 245 243 242 242 243 243 243 242 244 248 253 258 265
6 346 352 3 -0 353 347 332 351 357 343 338 329 342 340 341 338 339 330 318 301 271 276 283 283 261 259 268 257 252 256 254 245 239 246 241 241 241 244 248 252 257 262
347 325 332 343 356 334 348 353 360 15 10 4 359 357 2 357 347 346 354 344 342 344 347 355 336 303 280 283 279 266 252 258 262 274 261 246 252 237 242 254 258 262 267
350 342 330 332 328 329 315 319 333 355 346 350 349 348 342 335 339 336 344 341 346 338 329 335 334 332 337 336 320 304 324 338 287 283 296 292 274 251 250 251 250 257 272
8 357 355 356 357 351 347 342 336 339 332 336 337 333 332 330 328 330 334 323 329 322 310 313 314 317 322 325 336 345 343 324 308 301 288 269 262 273 257 250 248 251 257